Home > Weather > Masaya > Past weeks

Flag for Nicaragua Past Weather in Masaya, Nicaragua — Yesterday and Last 2 Weeks

Now
86 °F

Passing clouds.


Feels Like: 95 °F
Forecast: 73 / 86 °F
Wind: 5 mph from Northwest

Location: Managua A. C. Sandino

Current Time: Aug 26, 2016 at 9:17:04 PM

Latest Report: Aug 26, 2016 at 7:00 PM


Visibility: N/A

Pressure: 29.80 "Hg

Humidity: 70%

Dew Point: 75 °F

Location of MasayaLocation

Past Weather in Masaya — Graph

°F

Masaya Temperature Yesterday

Maximum temperature yesterday: 95 °F (at 2:00 PM)
Minimum temperature yesterday: 77 °F (at 4:00 AM)
Average temperature yesterday: 84 °F

High & Low Weather Summary for the Past Weeks

 TemperatureHumidityPressure
High95 °F (Aug 20, 3:00 PM)100% (Aug 14, 6:00 AM)29.92 "Hg (Aug 14, 6:00 AM)
Low73 °F (Aug 13, 3:00 AM)41% (Aug 20, 3:00 PM)29.56 "Hg (Aug 19, 8:00 PM)
Average82 °F74%29.83 "Hg
* Reported Aug 11 7:00 PM — Aug 26 7:00 PM, Masaya, Weather by CustomWeather, © 2016

Note: Actual official high and low records may vary slightly from our data, if they occured in-between our weather recording intervals... More about our weather records

Advertising

Masaya Weather History for the Previous 24 Hours

Scroll right to see more
 ConditionsComfort  
Time TempWeatherWind HumidityBarometerVisibility
7:00 PM
Fri, Aug 26
86 °FPassing clouds.5 mph70%29.80 "HgN/A
6:00 PM88 °FPassing clouds.5 mph62%29.77 "HgN/A
5:00 PM91 °FScattered clouds.9 mph56%29.74 "HgN/A
4:00 PM95 °FScattered clouds.9 mph47%29.71 "HgN/A
3:00 PM95 °FScattered clouds.7 mph47%29.71 "HgN/A
2:00 PM93 °FScattered clouds.7 mph49%29.74 "HgN/A
1:00 PM93 °FScattered clouds.5 mph53%29.77 "HgN/A
12:00 PM91 °FScattered clouds.7 mph56%29.80 "HgN/A
11:00 AM90 °FHot.N/A55%29.86 "HgN/A
10:00 AM86 °FScattered clouds.5 mph70%29.89 "HgN/A
9:00 AM82 °FScattered clouds.No wind79%29.89 "HgN/A
8:00 AM81 °FScattered clouds.No wind79%29.86 "HgN/A
7:00 AM77 °FScattered clouds.No wind94%29.86 "HgN/A
6:00 AM75 °FScattered clouds.No wind83%29.83 "HgN/A
5:00 AM77 °FPassing clouds.No wind79%29.83 "HgN/A
4:00 AM77 °FPassing clouds.No wind83%29.80 "HgN/A
2:00 AM79 °FPassing clouds.No wind79%29.83 "HgN/A
12:00 AM81 °FPassing clouds.No wind79%29.86 "HgN/A
11:00 PM
Thu, Aug 25
81 °FPassing clouds.No wind74%29.86 "HgN/A
10:00 PM81 °FPassing clouds.No wind79%29.83 "HgN/A
9:00 PM82 °FPassing clouds.5 mph74%29.83 "HgN/A
Weather by CustomWeather, © 2016

See weather overviewHow to use our weather pages